Wind_Speed
14 12 10 7 5 6 8 8 8 10 11 12 12 12 12 12 12 11 10 11 11 13 11 8 10 12 11 7 4 10 9 8 11 10 14 18 19 16 16 15 16 18 18 20 17
17 15 14 10 7 7 9 10 9 9 10 11 11 12 12 12 11 11 11 13 15 15 16 16 15 12 10 6 3 6 5 8 6 8 15 17 19 17 16 15 15 18 20 20 18
21 18 17 14 10 8 11 12 11 10 9 10 10 10 11 11 10 11 10 12 13 14 15 16 17 14 11 7 5 6 6 4 4 5 12 15 19 16 18 17 14 15 17 17 18
24 21 21 18 13 11 13 14 13 11 10 9 11 10 10 10 11 10 9 10 12 13 14 15 15 14 13 12 6 1 4 3 3 3 11 12 15 16 14 14 11 10 12 13 13
26 25 23 21 17 14 15 15 15 14 12 10 10 11 11 11 8 10 9 9 10 10 11 13 13 13 11 9 7 6 7 6 2 5 10 12 12 13 12 14 14 12 10 9 8
30 27 25 25 22 18 17 18 17 16 14 12 11 11 12 11 9 9 8 8 8 10 10 10 9 9 10 8 7 8 7 6 5 9 12 11 9 10 11 11 14 10 9 8 7
32 30 28 27 25 22 20 20 20 19 17 14 13 12 11 12 11 9 9 9 9 9 11 10 9 8 7 6 5 8 12 7 9 7 9 11 7 7 8 9 12 10 9 7 8
33 32 30 29 28 26 23 22 22 21 19 17 15 13 12 11 10 9 8 7 9 10 10 10 9 8 9 7 6 5 8 7 5 8 8 12 6 6 5 8 9 8 6 7 7
32 34 32 31 31 29 26 25 25 23 22 20 18 15 13 11 9 8 7 5 5 5 5 6 5 6 6 7 6 5 5 9 6 5 7 9 8 6 5 5 7 8 6 6 6
32 33 33 33 33 32 29 28 27 27 25 24 22 19 17 13 10 9 7 6 6 5 3 3 3 3 3 5 6 9 8 7 8 2 3 7 7 10 5 2 3 7 9 7 4
30 33 35 34 34 35 32 31 31 30 28 26 23 21 20 17 14 12 10 8 8 7 6 5 5 5 4 5 8 6 4 8 7 1 2 9 8 9 6 4 3 3 7 10 8
28 32 35 35 34 36 35 34 34 33 31 30 27 25 23 21 18 14 12 11 10 9 8 8 7 6 4 4 5 4 2 6 7 3 3 6 7 4 2 1 3 3 3 8 9
26 30 34 36 36 35 36 36 36 35 34 32 30 28 26 24 21 19 17 15 13 12 11 11 7 8 6 6 7 6 7 9 11 7 8 7 9 6 6 5 5 10 7 9 11
25 29 33 34 36 36 36 37 37 36 36 35 32 31 29 27 26 21 19 17 15 15 13 10 9 9 8 8 7 9 12 13 13 9 7 9 6 15 11 9 6 9 17 17 15
25 28 31 34 36 37 38 38 38 37 38 39 37 33 33 30 26 23 22 19 17 16 13 12 12 11 8 9 9 20 11 16 17 15 17 16 13 15 14 8 6 11 16 22 18
27 27 30 33 36 37 38 40 38 39 42 41 38 37 35 33 31 27 25 23 21 18 16 14 13 12 13 12 11 13 12 12 13 10 11 13 13 12 15 11 13 14 13 15 15
29 27 30 33 35 37 39 39 40 43 41 41 40 37 35 35 33 31 27 23 21 19 17 16 16 14 13 12 12 10 8 4 5 8 10 22 15 10 18 13 14 17 17 16 17
32 30 31 33 34 36 39 41 43 41 39 40 40 39 39 37 37 34 32 30 28 23 22 20 17 14 13 13 12 11 11 10 9 11 13 15 14 17 13 13 13 16 19 20 18
37 32 32 34 34 37 40 43 41 37 41 39 39 40 40 41 39 37 35 32 27 24 23 21 17 18 16 17 16 14 12 14 13 18 14 14 18 19 16 12 11 13 15 18 18
40 37 35 35 36 37 41 41 39 38 39 40 40 40 40 41 40 38 37 34 31 28 27 24 23 22 21 20 20 19 16 13 13 13 10 14 15 14 16 15 11 13 16 19 20
40 41 37 37 38 39 42 39 37 39 40 41 42 42 40 40 38 36 35 34 32 29 28 24 25 24 22 23 20 21 20 18 15 17 11 9 8 16 14 15 13 13 14 17 20
41 43 41 39 39 39 41 39 38 38 41 42 42 44 41 41 38 37 35 32 32 30 28 25 25 27 20 23 21 24 21 22 16 14 18 18 13 18 17 17 16 16 17 18 19
45 44 41 41 41 40 41 39 37 40 42 43 43 44 44 41 39 37 33 36 32 31 30 29 29 27 25 24 24 20 19 18 18 21 20 19 13 24 19 18 14 17 19 21 23
48 48 44 43 45 42 42 39 40 42 44 46 46 46 45 44 42 38 38 35 33 32 31 28 28 27 21 18 15 21 18 22 25 23 19 21 18 23 24 23 20 20 20 20 22
51 51 48 47 45 46 44 42 42 44 45 47 47 47 46 46 45 42 39 37 33 32 33 32 31 27 25 27 25 24 26 26 25 23 24 22 23 28 28 27 27 25 25 26 28
50 52 51 50 48 44 44 43 42 44 45 45 47 47 48 47 46 44 43 38 35 35 36 36 35 30 29 28 28 29 26 27 26 26 27 29 29 32 30 28 27 28 29 31 34
50 51 53 52 50 48 46 45 44 45 45 47 47 48 48 49 49 48 48 44 44 38 38 36 38 33 31 35 33 35 34 31 30 30 29 34 32 36 33 32 30 33 34 36 39
Wind_Direction
218 220 227 218 206 182 180 175 162 144 137 138 137 136 139 144 149 147 141 126 119 119 119 152 168 156 161 149 100 63 62 51 61 76 77 71 67 74 83 80 80 77 73 76 78
220 216 219 223 211 192 181 175 166 156 146 142 143 146 145 147 146 138 132 121 119 117 112 115 131 146 149 153 120 53 76 50 62 76 83 79 74 68 77 84 82 82 76 74 72
223 216 216 218 215 198 186 178 172 168 161 149 148 152 150 149 149 144 138 130 126 122 118 114 107 114 117 121 103 64 18 59 74 92 85 82 81 77 80 80 88 87 88 84 84
223 220 215 215 216 203 193 185 180 177 173 162 155 158 156 154 146 149 151 140 135 131 127 122 119 115 107 112 92 327 90 123 129 137 97 82 85 88 92 96 92 89 91 91 87
226 221 217 213 214 211 199 193 189 185 180 174 166 161 158 160 157 148 158 150 146 141 132 130 127 122 114 110 117 129 129 138 153 175 102 92 84 84 88 100 91 93 98 99 98
225 226 220 215 214 214 204 199 194 191 187 181 173 168 163 165 159 155 158 149 146 147 143 141 132 126 133 148 141 141 136 135 112 175 116 103 94 71 71 101 99 97 95 105 114
224 224 223 217 214 214 209 204 198 195 191 187 184 175 169 166 159 156 160 152 139 135 146 148 150 144 155 167 168 155 138 137 143 161 128 117 110 80 61 59 102 91 86 95 94
225 222 223 220 214 215 212 208 204 199 195 194 192 185 179 175 167 159 159 153 145 141 140 138 143 153 171 168 190 173 148 150 180 155 144 113 218 126 66 55 63 82 70 77 95
230 222 220 220 215 215 215 210 209 205 199 198 201 198 193 191 185 180 175 169 156 146 144 139 137 145 171 178 168 166 175 152 193 185 182 140 217 159 114 50 31 35 49 71 86
230 226 219 219 217 215 216 214 211 210 206 203 205 206 205 206 206 203 200 195 190 185 191 189 167 176 192 185 180 195 170 170 173 29 190 148 186 197 155 85 25 6 357 22 76
229 226 224 219 218 215 216 215 214 212 211 209 207 208 209 212 212 215 210 210 209 209 207 214 227 237 236 236 198 170 164 166 168 237 214 176 168 139 129 146 207 350 333 344 354
232 225 222 225 218 217 217 218 215 214 215 213 210 211 211 213 216 218 217 215 215 216 220 231 241 262 249 233 220 216 166 193 217 280 347 192 190 230 153 290 233 247 293 314 331
236 228 221 223 223 219 218 219 218 216 216 217 214 213 215 214 216 214 216 215 215 216 223 231 231 244 244 229 230 229 212 229 227 264 286 251 233 249 262 277 279 237 259 286 286
237 233 226 219 222 221 221 220 219 218 217 218 218 216 216 216 217 217 223 223 218 220 226 234 240 240 238 227 207 237 234 248 252 254 262 265 239 277 264 269 278 242 250 267 259
243 233 230 223 220 220 221 222 221 218 219 218 216 215 217 219 218 219 221 222 224 227 224 228 234 243 240 232 208 224 236 245 250 252 245 266 248 238 268 257 257 258 243 248 255
247 238 230 226 223 219 220 222 221 220 221 221 220 218 218 218 219 219 220 222 227 228 229 233 232 236 233 237 224 223 242 256 260 244 259 241 256 237 269 249 237 254 244 236 254
250 243 236 226 224 222 220 220 220 221 220 220 221 220 220 221 222 223 224 226 229 232 236 235 232 235 239 234 224 217 242 257 243 251 236 252 275 265 255 253 232 232 234 247 257
247 246 240 227 224 223 223 220 221 220 219 221 220 219 219 222 220 221 222 222 220 217 222 232 236 244 241 236 234 215 211 212 246 243 257 266 266 270 260 258 244 237 232 242 261
238 242 240 235 224 223 224 223 220 218 219 218 218 219 218 218 219 221 221 221 223 222 223 227 222 236 233 231 225 240 231 227 235 239 251 259 280 287 284 278 256 242 245 251 258
240 234 237 236 231 223 224 223 220 219 218 216 216 218 219 221 221 219 220 220 222 220 221 217 215 226 233 232 230 229 233 244 237 234 239 269 281 273 286 280 263 244 240 249 256
236 237 230 232 233 228 224 223 220 217 216 215 214 215 215 219 221 224 225 222 221 221 225 226 222 232 231 236 235 237 237 236 220 229 234 264 271 264 268 264 266 265 260 257 257
234 234 234 229 231 231 227 222 217 215 217 215 215 216 214 217 218 220 221 220 223 224 229 233 226 230 234 235 235 233 234 244 238 263 250 244 245 260 256 255 263 269 269 270 271
233 232 230 232 229 230 228 226 218 214 215 215 215 215 213 215 216 217 215 219 223 226 227 221 222 219 230 230 236 247 249 240 238 240 243 249 254 266 261 264 256 265 274 280 282
230 231 229 228 231 228 228 225 220 215 214 215 214 215 215 213 218 215 216 216 222 225 227 220 220 223 230 247 240 237 234 234 241 247 255 261 250 276 262 270 272 278 280 279 282
228 229 228 228 226 228 225 224 222 220 217 215 215 215 215 216 218 219 218 218 223 224 224 223 227 227 227 229 230 241 246 246 249 256 253 255 261 266 260 265 269 276 283 286 288
227 226 225 227 227 225 228 224 222 222 219 217 216 214 216 216 218 223 224 222 225 222 221 225 229 237 242 241 240 248 253 259 259 267 271 273 268 267 269 268 275 283 284 286 285
225 226 224 223 225 225 224 224 222 223 221 219 219 217 217 218 218 222 222 220 224 222 224 228 235 237 240 244 245 248 252 259 267 269 272 274 275 276 279 280 285 286 286 288 291
Height
5904 5906 5907 5909 5909 5910 5910 5911 5912 5913 5915 5916 5916 5916 5916 5917 5917 5918 5919 5922 5923 5924 5926 5927 5929 5931 5933 5934 5936 5938 5941 5942 5940 5939 5936 5934 5932 5931 5930 5929 5929 5928 5928 5927 5927
5902 5904 5906 5907 5909 5909 5910 5911 5912 5913 5915 5916 5917 5918 5918 5918 5919 5920 5921 5922 5924 5925 5926 5928 5929 5932 5934 5936 5938 5940 5945 5942 5941 5940 5939 5937 5934 5933 5932 5931 5931 5930 5930 5929 5930
5899 5901 5904 5905 5907 5908 5910 5911 5913 5914 5915 5916 5917 5918 5919 5920 5921 5922 5922 5923 5925 5926 5928 5929 5930 5933 5934 5936 5939 5942 5943 5942 5942 5942 5940 5939 5937 5936 5935 5934 5933 5933 5932 5932 5933
5895 5898 5901 5903 5905 5907 5909 5910 5912 5914 5915 5916 5917 5918 5920 5921 5923 5923 5924 5925 5926 5927 5928 5931 5933 5934 5936 5938 5940 5943 5943 5944 5943 5943 5942 5941 5940 5938 5937 5936 5936 5935 5935 5935 5935
5891 5894 5897 5900 5903 5905 5907 5909 5911 5913 5915 5916 5917 5918 5920 5922 5923 5923 5925 5926 5927 5928 5929 5931 5933 5935 5936 5938 5941 5942 5943 5944 5944 5943 5943 5942 5941 5940 5939 5938 5937 5937 5936 5936 5936
5886 5890 5894 5897 5900 5902 5905 5907 5910 5912 5914 5916 5917 5918 5919 5922 5922 5924 5925 5926 5928 5929 5931 5932 5934 5935 5937 5939 5941 5943 5944 5945 5945 5944 5943 5943 5942 5941 5941 5940 5939 5938 5938 5937 5937
5881 5885 5890 5893 5896 5899 5902 5905 5907 5910 5912 5915 5916 5918 5919 5921 5922 5923 5925 5927 5928 5930 5931 5933 5935 5936 5938 5939 5941 5943 5945 5946 5946 5945 5944 5944 5944 5942 5941 5942 5940 5939 5939 5938 5938
5876 5880 5884 5888 5892 5896 5899 5901 5904 5908 5910 5912 5915 5917 5918 5920 5921 5923 5924 5926 5927 5929 5931 5933 5935 5937 5938 5940 5942 5944 5945 5949 5947 5945 5945 5947 5948 5943 5942 5942 5942 5941 5940 5938 5938
5871 5875 5879 5883 5887 5891 5895 5897 5901 5904 5908 5910 5913 5915 5917 5918 5920 5922 5924 5925 5927 5929 5930 5932 5934 5936 5938 5940 5943 5944 5949 5948 5948 5947 5947 5947 5948 5945 5943 5942 5942 5942 5941 5940 5939
5865 5869 5873 5877 5882 5886 5890 5894 5896 5900 5903 5907 5909 5913 5915 5917 5918 5921 5922 5924 5926 5928 5930 5932 5933 5935 5936 5938 5944 5944 5945 5946 5947 5947 5946 5946 5949 5946 5944 5943 5943 5942 5940 5940 5939
5858 5863 5868 5871 5876 5880 5885 5889 5894 5897 5899 5903 5907 5909 5912 5915 5916 5919 5921 5923 5925 5926 5928 5930 5932 5933 5934 5936 5937 5939 5941 5944 5946 5946 5946 5949 5950 5947 5946 5944 5943 5942 5941 5940 5939
5851 5855 5861 5866 5870 5874 5878 5883 5887 5891 5895 5898 5902 5905 5908 5911 5914 5916 5918 5921 5922 5924 5926 5928 5929 5930 5932 5933 5934 5936 5939 5942 5944 5945 5946 5947 5947 5947 5946 5945 5943 5942 5942 5941 5940
5846 5849 5853 5858 5864 5868 5872 5876 5880 5885 5890 5894 5897 5901 5904 5908 5910 5913 5915 5917 5919 5921 5923 5925 5928 5928 5930 5930 5932 5934 5938 5939 5942 5943 5943 5945 5945 5945 5945 5944 5944 5942 5941 5940 5939
5840 5843 5846 5850 5858 5861 5866 5869 5874 5880 5884 5889 5892 5896 5900 5903 5905 5909 5912 5915 5916 5918 5920 5923 5924 5926 5927 5928 5931 5934 5934 5936 5938 5940 5943 5941 5947 5944 5942 5942 5942 5941 5939 5938 5938
5834 5836 5840 5844 5848 5853 5858 5862 5867 5874 5877 5881 5884 5891 5894 5898 5903 5905 5908 5910 5913 5915 5918 5921 5921 5922 5923 5925 5928 5931 5930 5932 5934 5937 5939 5938 5941 5945 5940 5939 5940 5938 5936 5935 5935
5827 5830 5832 5837 5840 5845 5849 5854 5861 5867 5867 5874 5879 5884 5889 5893 5896 5900 5903 5906 5908 5911 5913 5916 5918 5919 5920 5922 5924 5925 5926 5928 5930 5934 5934 5936 5936 5940 5937 5935 5935 5934 5933 5932 5931
5820 5823 5825 5829 5833 5837 5841 5846 5853 5854 5863 5869 5873 5879 5884 5888 5891 5895 5899 5902 5905 5908 5910 5912 5914 5915 5916 5918 5920 5922 5924 5928 5930 5932 5934 5928 5930 5931 5929 5929 5929 5929 5929 5928 5928
5812 5815 5818 5821 5825 5828 5832 5838 5842 5851 5856 5861 5867 5871 5876 5881 5884 5889 5893 5896 5898 5902 5905 5906 5909 5910 5913 5915 5916 5918 5924 5928 5928 5930 5929 5923 5925 5924 5925 5924 5923 5923 5924 5925 5925
5802 5807 5810 5813 5816 5819 5824 5828 5838 5844 5848 5853 5859 5863 5868 5872 5878 5882 5887 5891 5895 5898 5901 5902 5905 5905 5907 5909 5914 5914 5916 5919 5920 5921 5921 5923 5919 5918 5918 5918 5918 5918 5919 5920 5919
5792 5797 5801 5804 5808 5810 5814 5823 5830 5836 5840 5846 5851 5856 5861 5866 5871 5875 5879 5885 5888 5891 5893 5897 5900 5901 5902 5904 5907 5909 5912 5915 5916 5918 5919 5917 5915 5914 5913 5912 5912 5912 5913 5914 5914
5782 5786 5791 5794 5798 5802 5806 5816 5821 5827 5832 5837 5842 5847 5853 5858 5864 5869 5875 5879 5882 5885 5887 5890 5894 5895 5898 5899 5902 5904 5906 5909 5913 5912 5915 5916 5916 5909 5909 5908 5907 5908 5908 5908 5908
5772 5774 5780 5783 5790 5795 5800 5806 5812 5818 5823 5829 5835 5839 5845 5850 5856 5862 5867 5872 5875 5878 5881 5886 5889 5890 5894 5893 5897 5899 5902 5903 5905 5907 5906 5906 5909 5904 5904 5903 5903 5903 5903 5902 5902
5760 5763 5769 5774 5780 5786 5790 5796 5802 5807 5813 5820 5826 5831 5837 5843 5849 5854 5860 5862 5868 5871 5873 5877 5880 5884 5886 5890 5892 5894 5896 5898 5898 5899 5900 5901 5906 5898 5898 5897 5899 5898 5897 5896 5896
5747 5752 5757 5762 5769 5775 5780 5786 5793 5797 5803 5808 5816 5823 5829 5836 5840 5847 5851 5856 5860 5863 5866 5870 5874 5878 5884 5886 5889 5887 5890 5891 5892 5893 5896 5895 5897 5891 5891 5891 5891 5891 5891 5891 5890
5730 5738 5745 5752 5757 5763 5769 5776 5783 5788 5793 5800 5807 5814 5821 5828 5833 5839 5844 5849 5853 5856 5860 5863 5866 5871 5876 5879 5881 5884 5883 5884 5885 5887 5887 5892 5889 5885 5885 5885 5883 5883 5883 5884 5884
5715 5722 5731 5738 5746 5752 5759 5766 5773 5778 5785 5791 5798 5805 5811 5818 5826 5831 5836 5842 5846 5850 5853 5857 5860 5864 5867 5869 5872 5873 5875 5876 5877 5878 5879 5879 5879 5875 5876 5876 5877 5876 5876 5876 5874
5700 5707 5715 5725 5733 5740 5747 5754 5761 5768 5775 5780 5788 5795 5801 5808 5815 5821 5824 5831 5835 5843 5847 5851 5853 5859 5861 5861 5863 5864 5866 5868 5868 5869 5871 5867 5869 5864 5866 5867 5868 5866 5866 5866 5862